GFSSW_925_temp_159.txt.gz
Temp
7 7 7 7 7 7 7 8 8 8 8 8 8 8 9 9 8 8 6 14 15 15 14 15 16 16 17 16 17 17 15 14 18 20 22 24 26 28 30 29 28 27 27 27 25
7 7 7 7 7 7 7 7 7 8 8 8 9 9 9 9 8 7 15 15 14 13 13 13 14 15 14 16 16 16 13 17 19 21 23 23 26 28 29 27 26 28 27 26 23
7 7 7 7 7 7 7 7 7 7 8 8 8 9 8 8 8 11 15 14 14 14 13 13 14 15 15 16 16 16 15 19 20 22 22 22 25 27 27 26 26 28 26 25 23
7 7 7 7 7 7 7 7 7 7 7 8 8 9 8 8 11 15 14 14 15 15 14 13 13 13 14 15 15 16 17 19 20 22 21 23 24 25 26 27 28 28 27 25 24
7 6 6 7 7 7 7 7 8 8 8 8 8 9 8 9 8 14 13 14 15 15 14 13 13 13 13 14 14 16 17 18 20 20 20 22 22 23 24 26 27 28 27 25 24
6 6 6 6 7 7 7 7 8 8 8 8 8 9 8 9 12 13 12 14 14 14 15 14 13 13 14 14 15 16 16 18 19 19 19 22 23 24 24 26 28 28 27 26 25
6 6 6 7 7 7 7 8 7 7 8 8 9 8 9 10 12 12 12 12 13 13 14 15 15 15 14 15 16 16 16 17 18 20 19 21 22 23 25 26 27 27 27 27 26
6 6 6 6 7 8 9 10 9 8 8 8 9 8 9 11 11 12 12 12 14 14 14 16 15 14 15 15 15 16 16 16 18 19 20 23 21 23 24 26 26 28 28 24 22
6 6 6 7 7 11 13 13 12 11 8 8 9 8 8 12 12 15 13 12 14 15 16 17 15 14 15 14 12 13 14 16 19 20 22 22 21 24 23 26 25 27 26 23 21
6 7 7 7 9 12 13 13 11 10 8 8 9 9 10 14 15 15 14 13 15 16 15 15 12 12 11 11 11 13 14 17 18 20 22 20 21 22 24 24 25 25 24 23 22
7 7 11 11 12 12 13 11 10 9 9 10 11 11 13 14 15 16 14 14 15 14 13 14 12 11 12 12 14 14 14 15 17 21 21 20 22 22 23 24 22 23 23 23 21
6 8 13 13 13 13 12 10 13 12 9 11 11 11 12 13 12 15 16 14 14 12 13 12 10 13 14 14 14 14 14 14 17 19 20 20 21 22 23 24 22 22 21 20 18
10 13 14 15 13 13 12 12 12 12 9 11 12 12 13 13 12 13 15 14 14 13 12 11 12 14 14 13 13 14 14 15 16 18 20 21 22 23 23 24 23 22 23 21 20
13 15 15 15 13 12 11 12 11 12 7 14 15 16 15 14 12 15 16 15 14 13 13 11 13 14 13 13 14 13 16 17 17 17 17 21 19 21 22 23 23 21 20 22 21
15 16 15 14 13 11 12 12 11 11 10 15 16 16 16 15 14 16 16 15 13 12 12 12 12 12 13 14 14 14 16 16 17 17 16 20 20 24 21 22 23 21 20 20 22
17 17 17 14 13 14 12 12 11 9 11 13 15 15 14 14 14 15 16 16 15 12 11 12 13 12 13 15 15 16 15 16 17 16 15 19 20 20 21 24 22 21 20 21 22
17 18 17 15 14 14 12 10 9 11 13 14 14 14 12 12 13 13 12 12 12 11 10 13 13 13 14 13 15 14 13 14 15 15 16 20 21 20 24 22 22 22 21 21 22
18 19 18 18 16 13 13 9 12 14 12 13 13 12 11 12 11 11 12 11 9 11 12 12 10 13 15 13 13 12 12 14 15 15 18 20 21 22 22 22 23 22 22 21 22
17 18 18 18 17 15 9 9 12 11 12 12 12 12 12 12 11 9 11 12 12 12 10 12 13 15 15 15 13 12 12 13 15 17 18 18 22 25 22 22 22 21 21 20 21
14 14 17 16 16 14 10 12 12 12 13 11 11 11 11 11 11 11 11 13 14 11 11 13 11 14 16 15 13 13 13 13 12 16 18 19 22 20 21 23 22 20 17 17 18
13 12 16 17 15 9 8 11 13 15 13 11 10 10 11 11 12 13 12 14 14 13 12 12 12 12 15 13 13 12 11 13 14 16 16 17 20 20 22 22 21 16 17 18 18
7 12 15 17 10 7 7 11 12 14 13 12 10 8 9 10 12 13 13 14 15 14 13 13 10 12 13 14 16 14 13 15 16 18 16 17 18 19 21 21 17 18 19 20 19
6 7 15 16 8 8 9 11 14 13 13 13 11 10 10 10 12 12 14 16 15 16 14 13 10 12 12 13 12 10 13 15 16 15 18 18 19 19 20 19 18 19 19 18 17
7 9 7 6 7 10 8 10 11 13 13 13 13 12 12 9 11 12 13 16 16 16 17 14 11 12 11 14 13 12 14 17 17 16 17 18 18 18 17 18 18 19 18 18 17
5 7 8 6 8 7 8 10 10 10 13 12 13 13 13 10 10 11 14 15 15 15 13 13 12 13 14 14 15 14 16 20 18 18 19 18 18 17 18 19 19 18 18 17 16
7 7 6 7 7 7 8 10 10 11 11 12 11 12 12 13 12 12 13 14 14 13 13 11 12 13 15 14 14 16 18 19 20 18 19 19 18 19 19 19 18 17 17 16 15
7 7 6 7 7 7 8 9 9 10 10 12 12 11 12 12 13 12 12 13 13 12 12 12 11 13 14 15 15 15 18 20 20 19 20 19 18 19 18 18 17 16 16 15 14

GFSSW_925_temp_162.txt.gz
Temp
7 7 7 7 7 7 7 8 8 8 8 8 8 8 9 8 8 9 7 13 14 13 13 13 15 16 16 15 16 14 15 13 17 20 22 23 24 25 27 27 27 26 26 24 22
7 7 7 7 7 7 7 7 7 8 8 8 8 8 9 9 8 7 14 14 13 13 12 13 14 14 13 15 15 15 12 15 17 19 22 22 24 25 27 27 26 26 25 23 21
7 7 7 7 7 7 7 7 8 8 8 8 8 8 9 9 8 11 14 13 12 13 12 13 13 14 14 15 15 15 14 17 19 21 21 22 23 25 26 26 25 26 25 22 21
7 6 7 7 7 7 7 7 8 8 8 8 8 9 9 9 12 13 13 13 14 15 13 12 12 13 13 14 15 15 16 18 19 21 21 22 21 22 24 26 26 26 25 23 22
7 7 7 7 7 7 7 7 7 8 8 8 8 9 9 9 9 13 13 13 14 14 13 11 11 12 12 13 15 15 16 18 19 18 18 20 20 21 21 23 24 25 25 23 22
6 6 7 7 7 7 7 7 7 7 8 8 8 9 8 9 12 12 12 13 14 14 13 12 12 12 13 14 15 15 15 16 18 18 19 20 21 22 22 23 23 25 25 24 23
6 6 7 7 7 7 8 8 8 8 8 8 9 8 9 10 12 12 12 12 12 13 13 15 15 14 13 14 15 15 16 16 16 18 19 19 20 21 22 23 23 24 25 24 24
7 7 6 7 8 10 11 8 11 11 8 9 9 8 9 11 12 12 12 12 13 13 12 15 15 13 14 14 14 15 15 15 17 17 19 20 20 22 22 22 23 24 25 24 23
7 7 7 9 12 13 13 12 11 10 8 9 9 8 8 12 11 14 13 12 13 14 14 15 14 13 14 12 11 12 13 15 18 17 20 20 20 22 21 21 22 23 24 23 22
7 7 9 12 13 13 14 11 10 9 9 9 9 9 10 13 14 14 13 13 14 15 15 15 11 11 9 10 10 13 13 13 16 18 19 18 19 20 22 21 22 22 24 22 22
7 9 11 13 13 13 13 12 10 9 9 10 11 10 12 13 14 15 14 13 15 14 12 12 11 10 11 12 13 13 13 13 14 16 18 19 18 19 22 24 21 22 21 21 20
11 12 13 14 14 13 12 11 12 11 9 10 10 10 11 12 12 14 15 14 14 13 13 11 10 12 13 13 13 13 12 13 15 16 16 17 18 20 20 22 20 21 20 19 19
14 14 15 15 14 12 11 12 12 12 8 11 11 11 13 12 12 12 14 13 13 12 12 11 12 13 13 13 13 12 12 13 14 16 17 18 18 20 20 21 21 22 21 19 19
15 15 16 15 12 11 11 12 11 11 8 14 14 15 14 14 12 14 14 14 13 12 11 11 12 13 12 12 12 11 14 15 15 15 14 17 17 19 20 21 20 19 19 19 20
15 16 17 16 13 11 12 12 11 10 10 14 15 16 17 14 14 15 15 14 12 12 12 11 11 12 11 12 13 12 14 14 15 15 16 16 18 21 19 21 18 18 19 20 21
15 18 18 15 13 13 12 11 11 9 11 13 15 15 14 14 13 14 14 15 15 12 11 12 12 12 12 14 14 15 14 14 15 16 14 15 17 20 20 22 19 19 20 20 21
17 18 18 16 13 12 11 9 9 11 14 14 14 13 12 12 13 12 12 9 10 10 11 12 11 12 13 13 13 14 12 10 12 14 14 16 18 19 20 21 21 20 21 21 22
18 18 17 16 14 12 12 9 10 14 13 14 13 12 11 12 12 11 10 11 10 9 10 11 11 12 13 12 11 11 10 10 13 14 14 18 17 21 21 20 21 21 21 21 21
17 17 16 16 15 13 9 9 10 12 13 13 12 11 12 13 11 10 9 11 10 9 10 10 12 14 14 14 13 11 10 12 12 14 15 17 19 22 21 20 20 20 20 21 20
14 14 15 16 15 14 9 11 11 13 14 13 11 11 11 12 11 11 11 12 12 10 10 11 10 12 14 14 13 12 12 11 12 14 17 16 19 20 20 21 20 19 20 17 17
13 11 15 16 14 8 7 10 11 13 14 11 11 9 10 11 12 13 12 13 13 11 10 11 11 12 11 12 12 11 10 11 12 12 15 16 19 19 21 22 20 20 17 18 18
8 12 15 16 10 5 6 10 11 13 13 12 10 9 9 9 11 13 12 13 14 12 10 11 11 12 12 12 13 13 12 14 12 15 14 16 18 19 19 17 18 17 18 19 20
5 6 14 15 7 7 8 9 11 12 11 13 12 10 10 9 10 12 13 15 14 13 12 11 10 11 12 12 12 13 12 12 11 12 15 17 17 18 17 17 18 18 19 19 17
6 9 7 5 6 8 7 8 10 12 11 12 12 13 12 10 9 11 11 14 15 15 16 14 10 12 11 13 13 12 12 12 11 12 16 17 18 16 16 17 18 19 18 17 16
5 7 6 7 7 6 7 8 9 10 11 10 12 12 11 11 9 10 10 11 13 16 13 12 11 11 13 14 14 13 13 13 11 13 17 19 19 16 17 17 18 18 17 16 15
6 6 6 6 6 6 8 9 9 9 9 10 11 11 11 11 11 11 12 11 10 13 13 10 12 13 13 14 13 13 12 13 14 16 18 17 17 16 18 18 18 17 17 16 15
6 6 7 6 6 6 7 9 8 8 9 10 10 10 10 11 12 12 11 12 11 12 12 11 11 12 14 13 12 13 15 16 18 17 18 17 17 18 18 18 17 17 17 16 15

GFSSW_925_temp_165.txt.gz
Temp
7 7 7 7 7 7 7 8 8 8 8 8 8 8 9 9 9 9 9 12 13 12 12 14 15 16 16 18 19 19 22 23 24 24 26 26 27 28 29 30 31 31 31 28 24
7 7 7 7 7 7 7 8 8 8 8 8 8 8 9 9 9 10 13 12 12 11 13 14 16 17 18 18 19 21 21 22 23 25 26 26 27 28 29 29 30 30 26 25 23
7 7 7 7 7 7 7 7 8 8 8 9 8 9 9 9 10 14 12 12 13 13 13 13 14 16 17 18 18 18 21 21 22 23 24 25 26 26 28 29 30 30 28 24 23
7 7 7 7 7 7 7 7 7 8 8 8 8 9 9 9 15 13 12 13 14 14 13 13 15 16 17 17 18 18 19 21 23 22 23 24 24 25 26 29 29 28 28 24 24
7 7 7 7 7 7 7 7 8 8 8 8 9 9 9 10 12 12 12 13 14 13 14 14 15 15 16 17 17 18 19 20 21 21 22 22 24 24 25 28 28 28 28 26 25
7 7 7 7 8 8 8 8 8 8 8 8 9 9 9 11 12 12 12 13 13 14 13 14 15 16 16 16 17 17 18 20 20 22 22 22 23 24 27 26 27 28 28 28 26
7 7 7 7 10 10 8 8 9 9 8 8 9 8 9 11 12 12 12 13 12 12 15 15 15 16 16 16 17 17 17 19 20 21 22 22 23 23 25 26 26 27 28 28 27
7 7 7 11 13 13 12 10 11 10 9 9 9 9 10 12 12 13 13 12 12 12 12 14 14 16 16 17 17 17 18 18 20 20 22 22 24 26 27 26 26 27 28 27 26
7 8 12 13 14 14 13 12 10 10 9 9 8 9 13 12 13 13 13 13 12 12 13 14 15 16 16 16 16 16 17 18 19 21 22 22 23 25 26 25 26 27 28 28 26
7 12 14 14 14 14 14 12 10 9 9 9 9 10 13 14 14 14 13 12 15 15 15 15 15 15 15 16 16 16 16 17 19 21 21 22 22 25 25 25 26 27 27 28 26
11 13 14 15 14 14 14 12 13 13 10 12 12 12 13 13 14 15 13 14 16 16 15 14 15 15 15 16 16 15 15 16 18 19 19 21 22 23 25 25 25 26 26 27 27
14 14 15 15 15 13 13 14 13 12 12 12 11 11 12 12 14 15 14 16 15 15 15 14 14 15 15 15 15 15 15 16 17 19 19 20 21 22 23 24 25 26 26 26 25
13 14 16 16 15 13 12 12 12 12 11 13 13 13 15 13 14 15 15 15 15 14 15 14 15 14 15 15 14 15 15 16 16 18 19 20 21 22 24 24 25 26 27 26 24
13 15 17 15 12 12 12 12 11 11 13 16 16 16 14 14 14 16 15 16 15 15 14 14 15 14 14 14 15 14 15 16 16 17 19 19 22 23 24 25 25 26 24 24 24
14 16 17 16 13 12 12 11 11 11 16 16 16 16 17 15 15 15 15 15 15 14 14 15 14 14 14 14 15 15 16 16 16 17 17 19 19 24 25 24 25 26 24 24 24
15 17 17 15 14 12 11 11 11 14 15 15 16 15 15 14 14 15 14 14 14 15 14 15 14 15 15 15 15 16 16 16 17 17 16 19 20 24 24 26 26 26 25 24 25
16 17 16 15 14 12 11 11 15 14 16 15 15 15 13 13 14 13 13 11 11 12 12 13 14 15 15 15 15 16 15 15 15 16 18 21 20 23 26 27 27 26 25 25 26
16 17 15 13 13 11 11 15 13 15 14 16 15 14 13 14 13 12 12 12 10 10 12 13 13 14 15 15 15 15 15 16 15 17 19 20 20 23 26 26 28 26 25 25 25
16 16 15 14 13 12 15 13 13 14 15 14 14 12 13 14 13 12 12 13 13 10 11 12 13 15 15 16 16 15 13 16 14 17 20 21 22 24 25 25 26 25 25 25 23
13 13 14 15 13 13 15 13 13 14 15 14 12 11 11 13 12 13 13 14 13 11 13 14 13 14 15 16 16 15 17 14 13 16 18 21 22 24 24 25 25 25 25 24 23
12 16 15 15 14 15 13 13 13 15 14 13 14 11 11 10 11 13 14 15 15 12 12 13 13 14 14 14 15 14 14 15 16 15 20 21 22 26 25 26 25 26 26 24 23
9 17 14 15 16 10 12 12 12 14 14 14 12 12 10 10 10 12 13 14 15 14 12 13 13 13 14 14 15 16 15 15 16 18 18 19 24 24 26 26 26 26 25 23 23
10 11 14 15 13 12 12 11 12 13 13 13 14 12 11 10 10 10 12 15 15 14 13 13 13 12 12 12 13 14 15 16 14 12 16 20 23 21 23 26 25 24 22 21 19
12 14 13 11 9 10 10 11 12 13 12 13 13 14 14 11 11 10 10 12 12 14 13 12 14 13 12 13 15 13 15 15 15 13 18 20 22 20 23 23 23 22 19 18 17
10 10 8 12 12 9 8 10 11 11 12 12 13 14 13 10 10 10 9 10 10 13 13 12 13 14 15 14 13 15 15 13 13 15 14 20 17 21 23 23 23 21 19 17 16
11 10 9 9 9 9 9 12 11 12 10 12 12 14 12 10 11 10 10 8 10 13 14 12 13 15 15 13 12 12 14 13 14 15 15 16 16 20 21 23 20 18 17 16 15
5 6 8 9 10 10 11 11 11 10 11 11 12 11 12 14 12 12 10 10 11 12 13 12 13 13 14 14 13 13 13 14 16 17 16 16 18 20 20 21 20 18 17 16 15

GFSSW_925_temp_168.txt.gz
Temp
7 7 7 7 7 8 7 8 8 8 8 9 9 8 9 9 9 13 16 15 14 13 14 17 18 20 20 23 24 24 25 27 30 30 31 33 31 34 34 34 35 35 35 33 27
7 7 7 7 7 7 7 8 8 8 9 9 9 9 9 9 12 16 14 13 13 12 16 18 20 21 22 22 23 23 25 28 31 31 31 32 31 33 33 33 33 34 33 30 27
7 7 7 7 7 7 8 8 8 8 8 9 9 9 9 9 15 17 12 12 12 13 16 17 19 21 22 23 23 23 24 28 29 29 30 31 31 33 32 33 34 35 35 31 28
7 7 7 8 8 8 8 8 8 8 8 9 9 9 9 12 19 16 12 13 14 16 16 18 20 20 21 22 23 22 24 25 27 27 28 29 31 31 31 34 35 32 32 30 30
7 7 7 8 8 8 8 8 8 8 8 8 9 9 11 16 18 14 14 14 15 16 18 19 20 21 21 22 23 21 23 24 25 26 26 28 28 29 31 32 33 32 31 30 29
7 8 8 8 9 10 8 8 9 8 8 9 9 9 12 17 14 14 14 15 16 17 18 19 20 20 20 21 21 23 23 23 24 26 26 26 28 29 30 31 31 31 32 31 30
8 8 10 13 13 13 10 9 11 10 9 9 9 10 13 17 14 15 15 15 16 16 19 18 18 19 20 20 21 22 20 22 23 24 25 26 26 28 30 32 30 30 31 31 32
8 11 14 15 15 14 14 12 11 10 10 9 9 11 16 15 15 15 16 16 15 15 17 17 18 19 19 21 20 20 21 22 24 24 25 25 26 28 30 30 30 30 31 31 30
10 13 15 15 15 15 14 13 11 10 10 10 12 13 18 14 16 16 16 17 16 16 16 17 18 19 19 19 20 21 21 21 24 25 25 24 25 28 30 31 30 31 31 31 30
12 13 15 16 15 15 14 12 11 10 11 11 12 15 19 18 17 16 16 16 18 18 18 18 19 19 20 20 20 21 21 22 23 25 24 25 25 27 28 29 30 30 31 32 30
12 12 15 16 16 15 15 14 17 17 16 17 17 17 18 17 17 18 17 17 18 18 18 18 18 19 20 20 20 20 20 21 23 24 23 25 25 27 28 28 29 31 31 31 31
12 12 15 17 16 15 14 18 16 15 17 17 17 16 16 16 18 19 17 18 18 18 18 17 18 19 19 19 18 19 19 20 21 22 22 23 24 26 27 28 29 30 30 30 31
13 14 17 17 15 14 15 16 14 14 17 18 18 18 19 17 18 18 18 18 18 17 16 17 19 17 18 18 18 19 19 20 20 22 22 22 23 25 26 28 29 29 30 31 31
13 16 17 16 14 16 18 14 13 13 17 19 19 19 18 18 17 18 18 18 18 17 18 18 20 17 17 17 18 18 20 19 19 20 22 24 25 26 26 27 28 29 29 31 31
13 17 17 17 16 19 15 13 13 14 19 20 19 19 20 17 18 17 18 18 17 17 17 18 18 17 17 18 18 18 19 19 20 20 22 23 23 27 28 27 29 29 30 31 31
15 17 17 15 15 15 13 13 14 18 18 19 20 19 19 18 18 18 17 17 17 15 17 18 19 18 19 18 18 19 18 19 20 21 20 23 23 27 28 28 29 31 30 30 31
15 16 15 14 18 14 13 16 19 17 20 19 18 19 18 18 17 17 16 15 14 14 15 16 17 18 18 18 18 18 18 19 19 20 21 25 23 26 29 30 31 31 31 30 30
16 16 15 15 14 13 16 20 18 19 18 18 18 18 17 17 17 16 16 16 14 13 16 16 15 17 18 18 19 18 19 20 17 20 23 24 23 26 28 30 31 32 32 30 30
16 16 17 15 13 14 20 17 17 16 17 16 17 15 17 16 14 14 17 17 17 13 15 16 16 18 18 19 19 19 17 21 18 21 23 25 25 27 28 29 30 32 31 30 29
13 17 18 15 13 16 19 14 17 17 17 17 15 14 14 14 12 15 15 18 16 16 17 17 16 18 18 18 19 19 20 17 18 18 21 24 25 26 27 28 29 31 30 29 27
15 21 17 15 15 21 17 17 17 18 17 16 16 15 15 12 12 12 13 17 17 16 16 17 16 17 17 17 18 17 17 19 20 21 21 23 25 28 29 28 29 31 30 27 26
16 22 17 16 20 19 17 16 13 17 17 17 16 16 14 14 11 12 12 14 14 15 15 16 16 17 18 19 19 19 19 19 18 20 21 23 25 30 29 30 30 31 30 27 26
18 19 17 17 16 16 17 17 16 16 16 16 16 17 17 12 11 11 11 13 14 13 12 14 14 15 15 13 15 16 19 19 19 19 20 22 25 29 29 29 31 31 28 27 26
17 19 20 18 15 14 14 17 16 17 16 16 16 17 16 15 15 11 10 11 12 12 12 11 15 16 16 14 11 15 17 19 18 18 19 22 24 26 27 28 30 28 25 25 21
17 16 13 17 18 14 15 15 16 16 16 16 16 17 16 13 12 11 10 9 10 11 11 10 13 16 17 17 16 17 17 18 17 19 19 21 23 22 23 29 30 24 20 19 18
16 15 16 15 14 15 12 16 15 15 14 16 16 16 16 15 14 12 11 9 11 13 11 12 13 16 17 15 13 16 19 20 20 20 20 21 21 23 23 25 24 19 19 20 20
12 12 11 15 15 16 16 14 14 15 15 16 15 16 16 17 16 15 11 11 12 13 14 14 14 14 15 13 14 14 18 20 20 21 21 21 22 23 22 26 21 20 19 20 19

GFSSW_925_temp_171.txt.gz
Temp
8 8 8 8 8 8 8 8 8 9 9 9 9 10 9 9 10 15 19 16 16 15 15 19 21 23 23 25 27 28 27 28 31 32 34 37 37 37 37 37 39 38 38 35 32
8 8 8 8 8 8 8 8 8 8 9 9 9 9 9 9 12 19 14 15 14 14 17 22 24 24 25 25 27 27 26 28 32 33 34 36 36 36 36 36 37 37 37 32 31
8 8 8 8 8 8 8 8 8 8 8 9 9 9 9 10 17 20 14 14 14 14 17 20 22 24 24 26 26 26 25 29 30 33 34 35 35 35 35 35 36 36 37 34 31
8 8 8 8 8 9 8 8 9 9 8 9 9 9 10 12 22 18 15 14 16 16 20 21 23 23 24 25 27 26 27 28 29 31 32 32 34 35 35 36 37 37 38 35 32
8 8 9 11 11 10 8 8 8 9 8 9 9 10 12 19 21 16 15 16 17 19 21 22 23 24 24 26 26 26 26 27 28 29 30 31 31 33 34 35 37 35 34 35 33
9 10 11 14 14 12 10 9 10 11 9 9 10 10 15 21 18 17 17 18 18 20 22 22 23 24 23 24 25 26 27 26 27 28 29 29 30 31 33 34 35 34 34 35 33
12 12 14 15 15 14 13 11 12 12 11 10 10 12 19 20 18 18 18 19 19 19 21 21 21 22 24 23 25 25 24 25 26 27 27 29 28 29 32 34 34 33 34 35 34
12 13 14 15 16 15 14 13 12 12 11 11 11 14 20 19 18 19 20 20 19 19 19 20 20 22 23 24 24 23 24 23 26 26 27 28 26 29 31 33 33 34 33 33 34
12 12 13 16 16 16 15 14 12 12 11 11 12 17 21 18 20 20 19 20 19 19 19 19 20 21 23 21 22 23 22 23 25 27 26 27 26 29 31 32 33 33 33 34 33
12 11 15 17 17 16 15 14 12 12 12 14 16 18 21 21 20 20 19 19 21 20 20 20 21 21 22 22 22 23 24 24 25 27 27 27 27 30 31 32 32 32 33 34 33
13 13 16 17 17 16 15 13 19 17 18 21 22 21 21 21 20 21 20 20 21 21 20 20 20 20 22 21 23 21 23 24 26 28 27 27 27 28 31 32 32 33 33 33 34
13 15 17 18 17 16 16 21 20 19 20 22 21 21 20 20 20 22 20 20 21 20 21 20 19 21 22 21 21 22 22 23 25 26 26 27 27 28 30 30 32 32 33 33 33
14 16 18 18 17 15 19 19 18 18 20 22 22 21 22 21 20 21 21 21 20 20 21 19 20 21 20 20 20 21 21 22 23 25 25 25 26 27 29 31 31 33 34 34 33
14 17 17 18 15 21 22 18 18 17 19 22 22 21 22 21 20 21 21 21 20 20 21 20 22 21 20 19 21 21 23 23 22 23 23 25 25 26 28 29 30 31 32 33 33
15 17 18 17 18 22 19 18 18 18 20 24 23 23 22 20 21 20 20 20 19 19 20 20 20 20 20 21 20 21 22 22 22 23 24 26 25 30 28 28 29 31 31 33 33
14 16 18 17 19 20 19 17 18 20 20 22 24 22 22 21 20 20 20 19 20 19 20 19 21 21 21 21 21 21 21 22 22 23 23 25 26 29 29 29 30 31 32 32 34
15 16 16 18 21 19 19 20 21 20 23 22 21 21 21 20 20 19 18 17 17 16 18 19 20 21 21 20 21 21 20 21 21 22 23 26 26 28 32 31 31 32 32 33 34
16 16 18 19 19 19 19 21 20 22 21 21 21 21 19 19 19 19 19 17 18 19 18 19 18 20 21 20 20 21 21 21 19 23 25 27 25 28 31 32 33 33 33 33 34
17 18 21 20 19 18 21 20 20 19 20 19 20 20 20 19 18 18 18 18 19 19 17 19 19 21 21 21 21 21 20 23 18 23 24 27 28 29 31 31 33 33 33 33 33
14 21 22 20 19 19 22 17 21 20 20 19 18 19 17 19 18 18 17 18 18 19 19 19 18 21 21 21 21 21 21 20 21 20 23 26 27 27 29 30 31 33 33 33 32
16 24 21 20 20 23 21 20 21 21 20 18 18 18 19 17 16 16 14 16 15 16 19 19 18 19 21 19 20 21 21 21 23 23 23 24 27 30 30 30 30 32 34 33 30
20 24 21 20 23 23 21 20 16 20 20 20 19 19 19 17 16 13 13 13 14 13 14 17 17 18 19 22 22 21 21 22 20 21 23 24 26 31 31 31 31 32 34 33 31
21 23 22 21 20 19 20 20 21 20 19 19 18 19 19 17 14 11 12 14 13 12 12 15 16 16 18 19 20 20 20 20 22 22 22 23 24 30 31 31 31 32 34 32 29
22 23 24 24 21 19 18 19 19 21 19 19 19 19 18 18 17 14 13 12 13 12 12 12 16 17 17 18 18 16 18 21 21 20 22 23 25 26 26 30 31 32 33 29 24
22 21 19 20 20 18 19 19 19 19 19 19 19 20 19 16 15 12 13 10 11 12 12 12 12 16 18 19 18 14 16 18 21 21 21 24 24 21 20 26 31 32 29 25 20
17 17 18 19 19 20 17 20 18 19 18 18 18 19 19 17 18 16 14 12 11 15 12 11 12 15 17 18 18 15 12 17 20 21 22 23 22 15 19 24 28 26 27 23 20
16 17 17 18 21 21 20 18 18 19 19 19 19 19 19 19 19 18 14 13 12 15 13 13 12 13 14 15 16 15 18 19 21 21 22 22 22 20 19 25 27 25 22 22 23

GFSSW_925_temp_174.txt.gz
Temp
8 8 8 8 8 9 9 8 9 9 9 9 9 10 10 10 11 16 19 17 16 17 17 18 22 24 24 25 27 28 26 27 28 31 33 36 36 38 39 39 39 39 37 36 34
8 8 8 8 8 9 9 9 9 9 9 9 9 9 10 10 11 17 16 17 17 16 16 22 25 26 25 26 26 26 26 26 29 31 32 35 36 37 38 37 37 38 35 34 34
8 8 8 8 9 9 9 9 9 9 9 9 9 9 10 10 16 19 16 17 17 15 17 20 23 24 25 26 27 26 26 28 29 31 32 33 35 37 37 36 36 37 34 34 34
8 9 10 11 11 11 9 9 9 9 9 9 9 10 10 12 21 18 17 17 17 16 18 22 24 24 24 25 27 26 27 28 28 29 30 31 33 34 36 36 38 38 35 34 34
11 11 14 14 14 13 12 10 11 10 11 9 10 10 11 17 22 17 17 17 17 20 22 23 23 24 24 25 27 27 27 28 29 29 29 30 31 32 34 36 37 38 38 34 33
12 11 14 15 15 14 13 12 13 12 12 11 11 11 14 21 20 20 19 20 20 21 22 24 23 25 23 24 25 27 27 27 28 28 29 29 29 31 32 34 36 36 36 35 33
12 11 12 15 16 16 15 15 13 13 13 12 12 11 18 21 20 20 21 21 21 21 22 23 23 23 23 24 26 26 25 26 27 28 28 29 28 29 32 33 34 35 34 35 35
11 10 12 16 17 16 16 15 14 13 13 13 12 13 21 21 20 21 21 22 22 21 21 22 22 22 22 23 24 24 24 23 26 27 27 27 26 29 31 31 32 34 34 34 33
13 11 13 17 17 17 16 15 14 13 13 13 13 17 22 21 21 22 21 21 21 21 21 21 21 21 22 22 22 23 22 24 25 27 27 26 26 28 31 31 31 33 34 34 35
14 13 15 18 18 17 16 15 13 13 13 14 16 20 22 23 22 21 21 21 22 23 22 21 21 21 22 21 20 23 21 24 25 27 26 26 26 28 30 31 31 32 34 33 33
15 15 17 18 18 17 17 15 20 17 17 22 23 23 24 22 22 23 22 22 22 22 21 22 21 21 21 18 17 22 19 20 24 27 27 26 26 27 29 31 31 32 33 33 33
15 16 17 18 18 17 16 22 22 21 20 24 23 23 23 22 22 23 22 21 22 21 23 22 20 22 22 17 16 21 20 19 24 26 25 26 27 28 29 30 32 32 33 33 33
16 17 17 18 18 17 20 22 21 20 20 24 24 23 24 23 22 22 23 22 21 21 22 22 23 23 22 21 21 21 22 22 23 22 22 23 26 28 29 30 31 32 33 33 33
15 17 18 18 16 23 23 21 21 19 18 23 23 24 24 24 21 23 23 22 21 21 22 22 23 22 21 21 21 20 22 23 23 21 19 25 22 26 28 29 30 31 32 33 33
15 17 18 17 17 23 22 21 20 20 19 25 25 25 25 23 22 22 22 22 20 20 21 20 21 22 21 22 22 20 22 22 23 23 22 22 23 26 28 28 30 30 32 33 33
15 17 18 20 18 22 22 21 20 20 21 24 25 24 23 23 23 23 22 21 21 19 20 20 22 22 22 22 22 23 21 22 22 22 21 23 23 26 28 28 29 31 32 33 34
16 17 18 18 22 22 21 22 21 21 24 23 22 23 23 21 21 22 21 20 16 15 18 21 20 22 22 21 22 22 20 19 20 20 20 24 24 27 30 29 30 30 31 33 34
17 18 18 20 22 21 21 21 21 23 22 23 22 22 22 21 20 19 20 19 21 16 13 17 17 19 22 21 21 20 21 19 17 20 22 26 25 28 31 31 31 32 32 32 33
17 21 20 22 22 21 22 21 21 21 22 20 21 21 21 21 20 20 19 18 19 17 16 18 18 21 22 22 22 20 19 20 17 19 20 23 27 29 31 31 31 32 31 32 32
13 21 24 23 22 21 22 20 23 23 22 20 19 20 19 20 19 19 17 19 17 17 16 18 17 21 21 22 22 21 17 19 20 18 19 25 27 27 29 30 32 32 31 32 32
15 25 23 23 22 24 22 22 22 22 22 20 20 19 20 19 19 18 17 17 15 16 14 14 16 18 19 20 21 21 20 21 21 21 21 21 25 30 30 30 31 32 33 32 32
18 24 24 23 24 23 22 22 20 22 22 21 21 20 19 19 18 17 16 13 15 14 12 15 16 17 19 21 23 22 21 22 20 21 23 23 22 26 29 31 31 32 33 33 33
19 24 24 24 22 21 21 21 23 22 22 21 20 20 20 18 16 15 15 16 15 12 12 15 16 16 19 21 20 20 22 22 22 22 21 21 23 28 28 31 31 32 33 33 33
20 23 23 23 23 21 20 21 21 23 22 21 20 21 20 19 20 17 17 15 13 13 13 12 14 16 17 18 16 18 21 22 21 20 21 23 24 25 27 25 23 25 30 33 30
21 21 21 19 19 20 21 22 21 20 21 21 20 20 20 17 18 16 18 15 13 13 12 12 12 15 17 19 19 17 17 20 20 21 21 23 24 25 25 24 23 23 23 26 21
18 18 19 19 20 21 21 21 20 20 20 20 19 20 20 19 19 18 17 14 13 15 13 12 12 14 14 16 18 17 18 18 18 17 20 23 23 22 24 24 23 22 21 26 22
17 17 18 18 20 20 20 20 20 20 20 21 21 20 20 21 20 20 19 18 17 15 13 12 11 12 13 15 13 14 17 16 17 19 21 21 24 25 23 23 23 21 21 22 24